36.52977, -87.35945

Hourly Observations for February 13, 2018

Temp ( °F °C ) Dew Point ( °F °C ) Humidity (%) Winds ( mph kmh ) Pressure ( in mb ) Visibility ( mi km ) Precip ( " mm )
12:52 am 00:52 Clear 75 23.9 69 20.6 82 82 S 7 11 29.97 1015 10 16.09344 0 0
1:52 am 01:52 Clear 75 23.9 69 20.6 82 82 SSW 9 15 29.97 1015 10 16.09344 0 0
2:52 am 02:52 Mostly Clear 75 23.9 69 20.6 82 82 SSW 9 15 29.97 1015 10 16.09344 0 0
3:52 am 03:52 Mostly Cloudy 75 23.9 69 20.6 82 82 SW 6 9 30.03 1017 10 16.09344 0 0
4:52 am 04:52 Mostly Cloudy 75 23.9 69 20.6 82 82 SW 8 13 30 1016 10 16.09344 0 0
5:52 am 05:52 Clear 74 23.3 69 20.6 85 85 SW 6 9 30 1016 10 16.09344 0 0
6:52 am 06:52 Sunny 74 23.3 69 20.6 85 85 S 3 6 30.03 1017 10 16.09344 0 0
7:52 am 07:52 Mostly Sunny 76 24.4 69 20.6 79 79 ENE 5 7 30.03 1017 10 16.09344 0 0
8:52 am 08:52 Mostly Cloudy 76 24.4 69 20.6 79 79 S 7 11 30.06 1018 10 16.09344 0 0
9:52 am 09:52 Sunny 80 26.7 69 20.6 69 69 SSE 7 11 30.03 1017 10 16.09344 0 0
10:52 am 10:52 Sunny 80 26.7 67 19.4 64 64 S 9 15 30.03 1017 10 16.09344 0 0
11:52 am 11:52 Mostly Sunny 80 26.7 69 20.6 69 69 S 8 13 30.03 1017 10 16.09344 0 0
12:52 pm 12:52 Partly Cloudy 82 27.8 70 21.1 67 67 SW 7 11 30.03 1017 10 16.09344 0 0
1:52 pm 13:52 Mostly Cloudy 85 29.4 69 20.6 59 59 SW 8 13 30 1016 10 16.09344 0 0
2:52 pm 14:52 Partly Cloudy 85 29.4 69 20.6 59 59 SSW 13 20 30 1016 10 16.09344 0 0
3:52 pm 15:52 Mostly Sunny 84 28.9 70 21.1 63 63 SW 10 17 29.97 1015 10 16.09344 0 0
4:52 pm 16:52 Partly Cloudy 84 28.9 70 21.1 63 63 SSW 7 11 29.94 1014 10 16.09344 0 0
5:52 pm 17:52 Sunny 84 28.9 71 21.7 65 65 SSW 9 15 29.94 1014 10 16.09344 0 0
6:52 pm 18:52 Sunny 81 27.2 69 20.6 67 67 SSW 7 11 29.94 1014 10 16.09344 0 0
7:52 pm 19:52 Clear 78 25.6 71 21.7 79 79 S 6 9 29.97 1015 10 16.09344 0 0
8:52 pm 20:52 Clear 78 25.6 72 22.2 82 82 S 5 7 29.97 1015 10 16.09344 0 0
9:52 pm 21:52 Clear 78 25.6 72 22.2 82 82 S 6 9 29.97 1015 10 16.09344 0 0
10:52 pm 22:52 Clear 77 25 72 22.2 85 85 SW 5 7 29.97 1015 10 16.09344 0 0
11:52 pm 23:52 Clear 75 23.9 71 21.7 88 88 SSW 3 6 29.97 1015 10 16.09344 0 0

Powered by AerisWeather